Weather History for Wellsville, NY

Change the Weather History Date:

Wednesday, February 20, 2013

  Actual Average (KBFD) Record (KBFD)
Temperature  
Mean Temperature 16 °F 24 °F  
Max Temperature 19 °F 34 °F 57 °F (1994)
Min Temperature 14 °F 15 °F -11 °F (1959)
Degree Days  
Heating Degree Days 48 35  
Month to date heating degree days 730  
Since 1 July heating degree days 5141  
Cooling Degree Days 0 0  
Month to date cooling degree days 0  
Year to date cooling degree days 0  
Moisture  
Dew Point 8 °F    
Average Humidity 69    
Maximum Humidity 79    
Minimum Humidity 58    
Precipitation  
Precipitation 0.00 in 0.07 in 0.62 in (1963)
Month to date precipitation 1.65  
Year to date precipitation 4.94  
Sea Level Pressure  
Sea Level Pressure 29.86 in    
Wind  
Wind Speed 16 mph (West)    
Max Wind Speed 32 mph    
Max Gust Speed 41 mph    
Visibility 3 miles    
Events Snow    
T = Trace of Precipitation, MM = Missing Value Source: NWS Daily Summary

Daily Weather History Graph

Daily Weather History Graph

Search for Another Location

Airport:

Trip Planner

Search our weather history database for the weather conditions in past years. The results will help you decide how hot, cold, wet, or windy it might be!

Date:

Astronomy

Feb. 20, 2013 Rise Set
Actual Time 7:00 AM EST 5:51 PM EST
Civil Twilight 6:32 AM EST 6:19 PM EST
Nautical Twilight 5:59 AM EST 6:52 PM EST
Astronomical Twilight 5:27 AM EST 7:24 PM EST
Moon 1:07 PM EST (2/20) 3:22 AM EST (2/20)
Length of Visible Light 11h 47m
Length of Day
10h 50m
Waxing Gibbous, 76% of the Moon is Illuminated
Feb 20
Waxing Gibbous
Feb 25
Full
Mar 4
Last Quarter
Mar 11
New
Mar 19
First Quarter

Hourly Weather History & Observations

Time (EST) Temp. Windchill Dew Point Humidity Pressure Visibility Wind Dir Wind Speed Gust Speed Precip Events Conditions
12:26 AM 19.4 °F 7.9 °F 12.2 °F 74% 29.71 in 5.0 mi West 10.4 mph - 0.00 in Snow Light Snow
12:56 AM 19.0 °F 3.2 °F 10.9 °F 71% 29.79 in 7.0 mi West 19.6 mph 25.3 mph 0.00 in Snow Light Snow
1:21 AM 19.4 °F 5.5 °F 8.6 °F 63% 29.72 in 10.0 mi West 15.0 mph 26.5 mph 0.00 in   Overcast
1:56 AM 18.0 °F 6.9 °F 8.1 °F 65% 29.80 in 5.0 mi WSW 9.2 mph 23.0 mph 0.00 in Snow Light Snow
2:29 AM 17.6 °F 4.3 °F 8.6 °F 68% 29.72 in 5.0 mi West 12.7 mph 24.2 mph 0.00 in Snow Light Snow
2:56 AM 17.1 °F 5.0 °F 9.0 °F 71% 29.80 in 5.0 mi WSW 10.4 mph 17.3 mph 0.00 in Snow Light Snow
3:19 AM 17.6 °F 5.7 °F 8.6 °F 68% 29.72 in 6.0 mi West 10.4 mph 20.7 mph 0.00 in Snow Light Snow
3:56 AM 16.0 °F 7.4 °F 8.1 °F 71% 29.80 in 5.0 mi WSW 5.8 mph 19.6 mph 0.00 in Snow Light Snow
4:56 AM 16.0 °F 1.1 °F 8.1 °F 71% 29.82 in 6.0 mi West 15.0 mph 20.7 mph 0.00 in Snow Light Snow
5:56 AM 15.1 °F -0.1 °F 7.0 °F 70% 29.84 in 3.0 mi West 15.0 mph 24.2 mph 0.00 in Snow Light Snow
6:53 AM 14.0 °F 2.9 °F 6.8 °F 73% 29.76 in 2.0 mi West 8.1 mph 24.2 mph 0.00 in Snow Light Snow
6:56 AM 14.0 °F -2.0 °F 7.0 °F 74% 29.86 in 2.0 mi West 16.1 mph 21.9 mph 0.00 in Snow Light Snow
7:14 AM 14.0 °F 1.2 °F 6.8 °F 73% 29.76 in 1.8 mi WSW 10.4 mph 19.6 mph 0.00 in Snow Light Snow
7:26 AM 14.0 °F 0.5 °F 6.8 °F 73% 29.76 in 2.5 mi WSW 11.5 mph 20.7 mph 0.00 in Snow Light Snow
7:53 AM 15.8 °F 2.7 °F 6.8 °F 68% 29.77 in 3.0 mi West 11.5 mph 21.9 mph 0.00 in Snow Light Snow
7:56 AM 15.1 °F 1.1 °F 7.0 °F 70% 29.86 in 3.0 mi WSW 12.7 mph 21.9 mph 0.00 in Snow Light Snow
8:09 AM 15.8 °F 2.7 °F 6.8 °F 68% 29.77 in 2.0 mi West 11.5 mph 24.2 mph 0.00 in Snow Light Snow
8:43 AM 15.8 °F 0.9 °F 6.8 °F 68% 29.78 in 4.0 mi West 15.0 mph 19.6 mph 0.00 in Snow Light Snow
8:56 AM 16.0 °F 2.9 °F 7.0 °F 68% 29.88 in 4.0 mi West 11.5 mph 24.2 mph 0.00 in Snow Light Snow
9:56 AM 17.1 °F -0.3 °F 7.0 °F 65% 29.88 in 2.5 mi West 21.9 mph 31.1 mph 0.00 in Snow Light Snow
10:56 AM 18.0 °F 2.6 °F 8.1 °F 65% 29.88 in 2.0 mi West 17.3 mph 32.2 mph 0.00 in Snow Light Snow
11:07 AM 17.6 °F 1.7 °F 8.6 °F 68% 29.79 in 1.8 mi West 18.4 mph 28.8 mph 0.00 in Snow Light Snow
11:17 AM 17.6 °F 2.2 °F 10.4 °F 73% 29.80 in 0.5 mi NW 17.3 mph 29.9 mph 0.00 in Snow Snow
11:24 AM 15.8 °F -0.6 °F 10.4 °F 79% 29.80 in 0.2 mi WNW 18.4 mph 28.8 mph 0.00 in Snow Heavy Snow
11:43 AM 15.8 °F -1.5 °F 8.6 °F 73% 29.81 in 0.8 mi NW 20.7 mph 28.8 mph 0.00 in Snow Light Snow
11:53 AM 17.6 °F 0.5 °F 6.8 °F 63% 29.81 in 2.5 mi WNW 21.9 mph 29.9 mph 0.00 in Snow Light Snow
11:54 AM 17.1 °F -1.0 °F 7.0 °F 65% 29.91 in 2.5 mi WNW 24.2 mph 29.9 mph 0.00 in Snow Light Snow
12:01 PM 19.4 °F 4.1 °F 6.8 °F 58% 29.81 in 7.0 mi WNW 18.4 mph 29.9 mph 0.00 in   Overcast
12:09 PM 17.6 °F 1.3 °F 8.6 °F 68% 29.81 in 5.0 mi NW 19.6 mph 29.9 mph 0.00 in Snow Light Snow
12:22 PM 17.6 °F -0.3 °F 6.8 °F 63% 29.81 in 1.8 mi WNW 24.2 mph 39.1 mph 0.00 in Snow Light Snow
12:36 PM 17.6 °F -1.0 °F 6.8 °F 63% 29.81 in 0.8 mi WNW 26.5 mph 36.8 mph 0.00 in Snow Light Snow
12:43 PM 17.6 °F -0.6 °F 6.8 °F 63% 29.82 in 1.2 mi NW 25.3 mph 34.5 mph 0.00 in Snow Light Snow
12:56 PM 16.0 °F -1.7 °F 6.1 °F 65% 29.93 in 1.2 mi WNW 21.9 mph 34.5 mph 0.00 in Snow Light Snow
1:03 PM 15.8 °F -1.9 °F 6.8 °F 68% 29.83 in 2.0 mi WNW 21.9 mph 32.2 mph 0.00 in Snow Light Snow
1:07 PM 17.6 °F -1.0 °F 6.8 °F 63% 29.83 in 1.5 mi West 26.5 mph 34.5 mph 0.00 in Snow Light Snow
1:11 PM 17.6 °F 1.3 °F 6.8 °F 63% 29.83 in 2.0 mi WNW 19.6 mph 34.5 mph 0.00 in Snow Light Snow
1:39 PM 15.8 °F 0.9 °F 8.6 °F 73% 29.84 in 1.5 mi West 15.0 mph 26.5 mph 0.00 in Snow Light Snow
1:47 PM 15.8 °F 0.9 °F 8.6 °F 73% 29.84 in 0.5 mi WNW 15.0 mph 23.0 mph 0.00 in Snow Snow
2:17 PM 15.8 °F -1.1 °F 8.6 °F 73% 29.85 in 1.0 mi WNW 19.6 mph 31.1 mph 0.00 in Snow Light Snow
2:28 PM 15.8 °F -1.9 °F 6.8 °F 68% 29.85 in 1.2 mi West 21.9 mph 32.2 mph 0.00 in Snow Light Snow
2:48 PM 15.8 °F -2.3 °F 6.8 °F 68% 29.86 in 3.0 mi West 23.0 mph 31.1 mph 0.00 in Snow Light Snow
2:52 PM 15.8 °F -3.1 °F 6.8 °F 68% 29.86 in 2.5 mi WNW 25.3 mph 33.4 mph 0.00 in Snow Light Snow
2:54 PM 15.8 °F -1.9 °F 6.8 °F 68% 29.87 in 1.8 mi West 21.9 mph 33.4 mph 0.00 in Snow Light Snow
2:56 PM 16.0 °F -0.9 °F 7.0 °F 68% 29.98 in 1.5 mi WNW 19.6 mph 33.4 mph 0.00 in Snow Light Snow
3:08 PM 15.8 °F -1.5 °F 8.6 °F 73% 29.87 in 1.0 mi West 20.7 mph 28.8 mph 0.00 in Snow Light Snow
3:45 PM 15.8 °F -0.6 °F 8.6 °F 73% 29.88 in 1.2 mi West 18.4 mph 28.8 mph 0.00 in Snow Light Snow
3:58 PM 15.8 °F -1.9 °F 8.6 °F 73% 29.89 in 0.8 mi WNW 21.9 mph 28.8 mph 0.00 in Snow Light Snow
4:05 PM 15.8 °F 0.9 °F 8.6 °F 73% 29.89 in 1.0 mi WNW 15.0 mph 28.8 mph 0.00 in Snow Light Snow
4:19 PM 15.8 °F -0.6 °F 8.6 °F 73% 29.90 in 3.0 mi WNW 18.4 mph 26.5 mph 0.00 in Snow Light Snow
4:33 PM 15.8 °F -3.7 °F 6.8 °F 68% 29.90 in 1.8 mi WNW 27.6 mph 38.0 mph 0.00 in Snow Light Snow
4:44 PM 15.8 °F -0.6 °F 6.8 °F 68% 29.91 in 3.0 mi WNW 18.4 mph 27.6 mph 0.00 in Snow Light Snow
4:56 PM 16.0 °F -0.4 °F 7.0 °F 68% 30.02 in 3.0 mi WNW 18.4 mph 31.1 mph 0.00 in Snow Light Snow
5:23 PM 15.8 °F -3.7 °F 6.8 °F 68% 29.91 in 3.0 mi WNW 27.6 mph 35.7 mph 0.00 in Snow Light Snow
5:30 PM 15.8 °F -5.0 °F 6.8 °F 68% 29.91 in 1.5 mi West 32.2 mph 41.4 mph 0.00 in Snow Light Snow
5:45 PM 15.8 °F -1.9 °F 6.8 °F 68% 29.93 in 3.0 mi West 21.9 mph 29.9 mph 0.00 in   Overcast
5:56 PM 15.1 °F -2.9 °F 6.1 °F 68% 30.06 in 8.0 mi WNW 21.9 mph 33.4 mph 0.00 in   Overcast
6:56 PM 15.1 °F -1.1 °F 6.1 °F 68% 30.06 in 6.0 mi West 17.3 mph 33.4 mph 0.00 in Snow Light Snow
7:56 PM 15.1 °F -1.6 °F 7.0 °F 70% 30.09 in 4.0 mi West 18.4 mph 25.3 mph 0.00 in Snow Light Snow
8:56 PM 15.1 °F -2.5 °F 8.1 °F 74% 30.07 in 5.0 mi WNW 20.7 mph 28.8 mph 0.00 in Snow Light Snow
9:56 PM 15.1 °F -2.0 °F 8.1 °F 74% 30.09 in 6.0 mi WNW 19.6 mph 29.9 mph 0.00 in Snow Light Snow
10:56 PM 15.1 °F -3.3 °F 8.1 °F 74% 30.08 in 4.0 mi WNW 23.0 mph 34.5 mph 0.00 in Snow Light Snow
11:56 PM 15.1 °F -1.6 °F 8.1 °F 74% 30.08 in 4.0 mi WNW 18.4 mph 31.1 mph 0.00 in Snow Light Snow